Location: Bishausen
(51.6334°N, 9.9631°E)
Time: 10:07:15
(UTC+00:00)

deb Agena D - Visible Passes

Search period start: 06 October 2024 00:00
Search period end: 16 October 2024 00:00
Orbit: 776 x 845 km, 99.8° (Epoch: 05 October)

Date Brightness Start Highest point End Pass type
(mag) Time Alt. Az. Time Alt. Az. Time Alt. Az.
06 Oct ? 03:23:30 10° SE 03:28:11 37° ENE 03:32:53 10° N visible
06 Oct ? 17:12:50 10° NNE 17:17:50 43° E 17:22:52 10° S visible
06 Oct ? 18:52:47 10° N 18:57:32 36° WNW 19:02:20 10° SW visible
07 Oct ? 03:00:40 10° ESE 03:04:50 26° ENE 03:09:03 10° N visible
07 Oct ? 04:39:13 10° S 04:44:16 61° WSW 04:49:23 10° NNW visible
07 Oct ? 18:29:02 10° N 18:34:07 53° WNW 18:39:15 10° SW visible
07 Oct ? 20:10:48 10° NNW 20:12:49 12° NW 20:14:52 10° WNW visible
08 Oct ? 02:38:07 10° E 02:41:33 18° NE 02:45:00 10° N visible
08 Oct ? 04:15:32 10° SSE 04:20:39 88° ENE 04:25:51 10° NNW visible
08 Oct ? 18:05:19 10° NNE 18:10:35 79° WNW 18:15:55 10° SSW visible
08 Oct ? 19:46:17 10° N 19:49:36 17° NW 19:52:57 10° W visible
09 Oct ? 02:16:01 10° ENE 02:18:19 13° NE 02:20:37 10° NNE visible
09 Oct ? 03:52:04 10° SE 03:57:05 59° ENE 04:02:09 10° N visible
09 Oct ? 17:41:41 10° NNE 17:46:57 70° ESE 17:52:16 10° S visible
09 Oct ? 19:22:09 10° N 19:26:17 24° NW 19:30:29 10° WSW visible
10 Oct ? 03:28:50 10° SE 03:33:33 39° ENE 03:38:20 10° N visible
10 Oct ? 17:18:08 10° NNE 17:23:13 46° E 17:28:20 10° S visible
10 Oct ? 18:58:09 10° N 19:02:52 34° WNW 19:07:37 10° WSW visible
11 Oct ? 03:05:50 10° ESE 03:10:06 27° ENE 03:14:23 10° N visible
11 Oct ? 04:44:31 10° S 04:49:33 57° WSW 04:54:39 10° NNW visible
11 Oct ? 18:34:15 10° N 18:39:19 50° WNW 18:44:28 10° SW visible
11 Oct ? 20:16:08 10° NNW 20:17:59 12° NW 20:19:51 10° WNW visible
12 Oct ? 02:43:07 10° E 02:46:41 19° NE 02:50:15 10° N visible
12 Oct ? 04:20:40 10° SSE 04:25:48 87° WSW 04:31:01 10° NNW visible
12 Oct ? 18:10:24 10° NNE 18:15:41 75° WNW 18:21:02 10° SSW visible
12 Oct ? 19:51:25 10° NNW 19:54:40 17° NW 19:57:55 10° W visible
13 Oct ? 02:20:48 10° ENE 02:23:18 14° NE 02:25:49 10° NNE visible
13 Oct ? 03:57:03 10° SSE 04:02:06 62° ENE 04:07:12 10° NNW visible
13 Oct ? 17:46:37 10° NNE 17:51:56 74° ESE 17:57:18 10° S visible
13 Oct ? 19:27:07 10° N 19:31:13 23° NW 19:35:22 10° WSW visible
14 Oct ? 03:33:40 10° SE 03:38:27 41° ENE 03:43:18 10° N visible
14 Oct ? 17:22:56 10° NNE 17:28:05 48° ESE 17:33:16 10° S visible
14 Oct ? 19:03:00 10° N 19:07:41 33° WNW 19:12:25 10° WSW visible
15 Oct ? 03:10:30 10° ESE 03:14:50 28° ENE 03:19:14 10° N visible
15 Oct ? 04:49:20 10° S 04:54:20 54° WSW 04:59:26 10° NNW visible
15 Oct ? 16:59:22 10° NE 17:04:06 32° E 17:08:52 10° SSE visible
15 Oct ? 18:38:57 10° N 18:44:01 48° WNW 18:49:10 10° SW visible
15 Oct ? 20:20:57 10° NNW 20:22:39 12° NW 20:24:20 10° WNW visible
